| time (UTC) | temp C | wind direction | speed KPH | gust KPH | rain 1hr cm | rain 24hr cm | rain mn cm | humidity % | barometer mb |
| 20260509064558 | 7 | 0 | 0.0 | 6.4 | 0.00 | 0.10 | 0.00 | 55 | 1008.5 |
| 20260509063056 | 7 | 0 | 0.0 | 4.8 | 0.00 | 0.10 | 0.00 | 56 | 1008.9 |
| 20260509061615 | 7 | 0 | 0.0 | 6.4 | 0.00 | 0.10 | 0.00 | 58 | 1009.0 |
| 20260509060129 | 7 | 135 | 0.0 | 4.8 | 0.00 | 0.10 | 0.00 | 58 | 1009.3 |
| 20260509054603 | 7 | 127 | 1.6 | 6.4 | 0.00 | 0.10 | 0.00 | 60 | 1009.3 |
| 20260509053058 | 7 | 112 | 0.0 | 6.4 | 0.00 | 0.10 | 0.00 | 62 | 1009.4 |
| 20260509051600 | 7 | 0 | 0.0 | 4.8 | 0.00 | 0.10 | 0.00 | 61 | 1009.7 |
| 20260509050137 | 7 | 0 | 0.0 | 1.6 | 0.00 | 0.10 | 0.00 | 61 | 1009.8 |
| 20260509044603 | 7 | 98 | 0.0 | 4.8 | 0.00 | 0.10 | 0.00 | 62 | 1009.9 |
| 20260509043058 | 7 | 141 | 1.6 | 11.3 | 0.00 | 0.10 | 0.00 | 64 | 1009.9 |
| 20260509041557 | 7 | 0 | 1.6 | 9.7 | 0.00 | 0.10 | 0.00 | 66 | 1010.1 |
| 20260509040058 | 6 | 0 | 0.0 | 4.8 | 0.00 | 0.10 | 0.00 | 67 | 1009.9 |
| 20260509034557 | 7 | 81 | 1.6 | 6.4 | 0.00 | 0.10 | 0.10 | 66 | 1010.1 |
| 20260509033057 | 7 | 114 | 3.2 | 16.1 | 0.00 | 0.10 | 0.10 | 65 | 1010.1 |
| 20260509031556 | 7 | 103 | 3.2 | 9.7 | 0.00 | 0.10 | 0.10 | 66 | 1010.1 |
| 20260509030057 | 6 | 121 | 1.6 | 8.0 | 0.00 | 0.10 | 0.10 | 67 | 1010.1 |
| 20260509024600 | 6 | 119 | 1.6 | 8.0 | 0.00 | 0.10 | 0.10 | 66 | 1010.3 |
| 20260509023104 | 7 | 0 | 0.0 | 8.0 | 0.00 | 0.10 | 0.10 | 65 | 1010.3 |
| 20260509021557 | 7 | 0 | 0.0 | 3.2 | 0.00 | 0.10 | 0.10 | 64 | 1010.5 |
| 20260509020059 | 7 | 50 | 1.6 | 4.8 | 0.00 | 0.10 | 0.10 | 62 | 1010.6 |
| 20260509014557 | 8 | 0 | 0.0 | 1.6 | 0.00 | 0.10 | 0.10 | 62 | 1010.5 |
| 20260509013101 | 8 | 0 | 0.0 | 0.0 | 0.00 | 0.10 | 0.10 | 57 | 1010.4 |
| 20260509011601 | 8 | 0 | 0.0 | 0.0 | 0.00 | 0.10 | 0.10 | 56 | 1010.2 |
| 20260509010059 | 8 | 0 | 0.0 | 0.0 | 0.00 | 0.10 | 0.10 | 57 | 1010.0 |
| 20260509004559 | 8 | 0 | 0.0 | 0.0 | 0.00 | 0.10 | 0.10 | 55 | 1009.9 |
| 20260509003106 | 9 | 0 | 0.0 | 0.0 | 0.00 | 0.10 | 0.10 | 54 | 1009.6 |
| 20260509001556 | 9 | 0 | 0.0 | 0.0 | 0.00 | 0.10 | 0.10 | 54 | 1009.6 |
| 20260509000105 | 10 | 0 | 0.0 | 0.0 | 0.00 | 0.10 | 0.10 | 56 | 1009.5 |
| 20260508234559 | 10 | 0 | 0.0 | 0.0 | 0.00 | 0.10 | 0.10 | 53 | 1009.5 |
| 20260508233056 | 11 | 0 | 0.0 | 0.0 | 0.00 | 0.10 | 0.10 | 53 | 1009.4 |
| 20260508231559 | 11 | 306 | 0.0 | 4.8 | 0.00 | 0.10 | 0.10 | 44 | 1009.3 |
| 20260508230106 | 12 | 0 | 1.6 | 11.3 | 0.00 | 0.10 | 0.10 | 43 | 1009.3 |
| 20260508224555 | 13 | 313 | 3.2 | 6.4 | 0.00 | 0.10 | 0.10 | 42 | 1009.3 |
| 20260508223055 | 12 | 260 | 1.6 | 8.0 | 0.00 | 0.10 | 0.10 | 45 | 1009.2 |
| 20260508221604 | 12 | 250 | 3.2 | 11.3 | 0.00 | 0.10 | 0.10 | 43 | 1009.2 |
| 20260508220058 | 12 | 161 | 3.2 | 9.7 | 0.00 | 0.10 | 0.10 | 46 | 1009.2 |
| 20260508214608 | 12 | 213 | 3.2 | 12.9 | 0.00 | 0.10 | 0.10 | 45 | 1009.3 |
| 20260508213058 | 12 | 273 | 4.8 | 14.5 | 0.00 | 0.10 | 0.10 | 44 | 1009.4 |
| 20260508211559 | 12 | 206 | 4.8 | 17.7 | 0.00 | 0.10 | 0.10 | 45 | 1009.5 |
| 20260508210055 | 12 | 238 | 4.8 | 9.7 | 0.00 | 0.10 | 0.10 | 46 | 1009.5 |
| 20260508204603 | 12 | 227 | 4.8 | 16.1 | 0.00 | 0.10 | 0.10 | 43 | 1009.6 |
| 20260508203057 | 12 | 202 | 6.4 | 16.1 | 0.00 | 0.10 | 0.10 | 49 | 1009.9 |
| 20260508201602 | 11 | 333 | 3.2 | 11.3 | 0.00 | 0.10 | 0.10 | 55 | 1010.0 |
| 20260508200057 | 11 | 295 | 4.8 | 11.3 | 0.00 | 0.10 | 0.10 | 48 | 1010.3 |
| 20260508194623 | 11 | 211 | 8.0 | 17.7 | 0.00 | 0.10 | 0.10 | 50 | 1010.3 |
| 20260508193106 | 11 | 188 | 9.7 | 24.1 | 0.00 | 0.10 | 0.10 | 52 | 1010.4 |
| 20260508191559 | 11 | 179 | 8.0 | 19.3 | 0.00 | 0.10 | 0.10 | 55 | 1010.5 |
| 20260508190057 | 11 | 355 | 3.2 | 17.7 | 0.00 | 0.10 | 0.10 | 54 | 1010.6 |
| 20260508184600 | 10 | 273 | 9.7 | 19.3 | 0.00 | 0.10 | 0.10 | 51 | 1010.6 |
| 20260508183055 | 11 | 185 | 8.0 | 17.7 | 0.00 | 0.10 | 0.10 | 57 | 1010.7 |
| 20260508181635 | 10 | 227 | 6.4 | 16.1 | 0.00 | 0.10 | 0.10 | 59 | 1010.7 |
| 20260508180110 | 10 | 257 | 8.0 | 20.9 | 0.00 | 0.10 | 0.10 | 58 | 1010.8 |
| 20260508174603 | 9 | 254 | 6.4 | 19.3 | 0.00 | 0.10 | 0.10 | 64 | 1011.0 |
| 20260508173057 | 8 | 248 | 4.8 | 19.3 | 0.00 | 0.10 | 0.10 | 67 | 1011.2 |
| 20260508171557 | 8 | 232 | 0.0 | 17.7 | 0.00 | 0.10 | 0.10 | 70 | 1011.4 |
| 20260508170056 | 7 | 243 | 4.8 | 16.1 | 0.00 | 0.10 | 0.10 | 71 | 1011.4 |
| 20260508164559 | 8 | 204 | 8.0 | 24.1 | 0.00 | 0.10 | 0.10 | 73 | 1011.5 |
| 20260508163105 | 7 | 252 | 3.2 | 16.1 | 0.00 | 0.10 | 0.10 | 78 | 1011.6 |
| 20260508161607 | 6 | 243 | 8.0 | 17.7 | 0.00 | 0.10 | 0.10 | 79 | 1011.8 |
| 20260508160059 | 6 | 205 | 8.0 | 25.7 | 0.00 | 0.10 | 0.10 | 79 | 1011.8 |
| 20260508154559 | 6 | 261 | 6.4 | 14.5 | 0.00 | 0.10 | 0.10 | 80 | 1011.8 |
| 20260508153057 | 5 | 205 | 4.8 | 16.1 | 0.00 | 0.10 | 0.10 | 81 | 1011.7 |
| 20260508151607 | 5 | 186 | 6.4 | 16.1 | 0.00 | 0.10 | 0.10 | 81 | 1011.7 |
| 20260508150059 | 4 | 214 | 4.8 | 9.7 | 0.00 | 0.10 | 0.10 | 81 | 1011.7 |
| 20260508144559 | 4 | 226 | 4.8 | 9.7 | 0.00 | 0.10 | 0.10 | 81 | 1011.7 |
| 20260508143056 | 4 | 212 | 1.6 | 8.0 | 0.00 | 0.10 | 0.10 | 81 | 1011.7 |
| 20260508141601 | 3 | 195 | 3.2 | 9.7 | 0.00 | 0.10 | 0.10 | 80 | 1011.7 |
| 20260508140057 | 3 | 0 | 3.2 | 11.3 | 0.03 | 0.10 | 0.10 | 81 | 1011.2 |
| 20260508134604 | 3 | 252 | 3.2 | 9.7 | 0.05 | 0.10 | 0.10 | 81 | 1011.6 |
| 20260508133108 | 3 | 244 | 3.2 | 9.7 | 0.08 | 0.10 | 0.10 | 81 | 1011.7 |
| 20260508131559 | 3 | 229 | 1.6 | 8.0 | 0.10 | 0.10 | 0.10 | 81 | 1011.8 |
| 20260508130112 | 3 | 258 | 3.2 | 9.7 | 0.08 | 0.08 | 0.08 | 81 | 1011.6 |
| 20260508124557 | 3 | 238 | 1.6 | 9.7 | 0.05 | 0.05 | 0.05 | 81 | 1011.6 |
| 20260508123105 | 4 | 250 | 1.6 | 12.9 | 0.03 | 0.03 | 0.03 | 81 | 1011.6 |
| 20260508121559 | 4 | 0 | 3.2 | 9.7 | 0.00 | 0.00 | 0.00 | 81 | 1011.1 |
| 20260508114556 | 5 | 274 | 4.8 | 11.3 | 0.00 | 0.00 | 0.00 | 80 | 1010.6 |
| 20260508113110 | 5 | 310 | 1.6 | 6.4 | 0.00 | 0.00 | 0.00 | 81 | 1010.3 |
| 20260508111606 | 4 | 229 | 3.2 | 6.4 | 0.00 | 0.00 | 0.00 | 81 | 1010.1 |
| 20260508110103 | 4 | 196 | 3.2 | 8.0 | 0.00 | 0.00 | 0.00 | 81 | 1009.9 |
| 20260508104557 | 4 | 190 | 3.2 | 8.0 | 0.00 | 0.00 | 0.00 | 81 | 1010.0 |
| 20260508103058 | 4 | 182 | 1.6 | 6.4 | 0.00 | 0.00 | 0.00 | 81 | 1009.7 |
| 20260508101556 | 4 | 192 | 1.6 | 6.4 | 0.00 | 0.00 | 0.00 | 81 | 1009.8 |
| 20260508100058 | 4 | 225 | 3.2 | 8.0 | 0.00 | 0.00 | 0.00 | 81 | 1010.0 |
| 20260508094607 | 4 | 215 | 3.2 | 8.0 | 0.00 | 0.00 | 0.00 | 81 | 1010.2 |
| 20260508093100 | 3 | 208 | 3.2 | 9.7 | 0.00 | 0.00 | 0.00 | 80 | 1010.4 |
| 20260508091602 | 3 | 235 | 1.6 | 6.4 | 0.00 | 0.00 | 0.00 | 81 | 1010.5 |
| 20260508090057 | 3 | 0 | 0.0 | 4.8 | 0.00 | 0.00 | 0.00 | 80 | 1010.4 |
| 20260508084602 | 3 | 0 | 0.0 | 4.8 | 0.00 | 0.00 | 0.00 | 81 | 1010.3 |
| 20260508083102 | 3 | 0 | 0.0 | 3.2 | 0.00 | 0.00 | 0.00 | 81 | 1010.4 |
| 20260508081634 | 3 | 0 | 0.0 | 3.2 | 0.00 | 0.00 | 0.00 | 81 | 1010.1 |
| 20260508080058 | 3 | 0 | 0.0 | 6.4 | 0.00 | 0.00 | 0.00 | 81 | 1010.0 |
| 20260508074557 | 3 | 0 | 0.0 | 6.4 | 0.00 | 0.00 | 0.00 | 81 | 1010.2 |
| 20260508073104 | 3 | 0 | 0.0 | 4.8 | 0.00 | 0.00 | 0.00 | 81 | 1010.0 |
| 20260508071601 | 3 | 0 | 0.0 | 4.8 | 0.00 | 0.00 | 0.00 | 81 | 1010.1 |
| 20260508070106 | 3 | 0 | 0.0 | 3.2 | 0.00 | 0.00 | 0.00 | 81 | 1010.3 |